Satellite-Ground Cal/Val Region Overpasses Predictions

Prediction of Satellite NPP Overpassing Cal/Val Region: PacNW

Region Location: (Latitude: 10.00, Longitude: 139.50) to (Latitude: 22.70, Longitude: 165.60).

Table of predicted overpasses for the next 14.0 days since TLE Epoch: 11/5/2016
Interval Starting Time Starting Location Ending Time Ending Location
1 11/06/2016 03:11:43 ( 10.06, 151.88) 11/06/2016 03:15:18 ( 22.68, 148.88)
2 11/06/2016 15:43:35 ( 22.65, 149.10) 11/06/2016 15:47:10 ( 10.03, 146.10)
3 11/07/2016 02:52:40 ( 10.02, 156.64) 11/07/2016 02:56:15 ( 22.64, 153.64)
4 11/07/2016 15:24:33 ( 22.69, 153.87) 11/07/2016 15:28:09 ( 10.01, 150.86)
5 11/08/2016 02:33:39 ( 10.04, 161.39) 11/08/2016 02:37:14 ( 22.66, 158.39)
6 11/08/2016 15:05:31 ( 22.67, 158.62) 11/08/2016 15:09:06 ( 10.04, 155.62)
7 11/09/2016 02:15:18 ( 12.47, 165.59) 11/09/2016 02:18:12 ( 22.68, 163.15)
8 11/09/2016 03:56:06 ( 10.01, 140.78) 11/09/2016 03:57:40 ( 15.53, 139.50)
9 11/09/2016 14:46:30 ( 22.65, 163.37) 11/09/2016 14:50:05 ( 10.02, 160.37)
10 11/10/2016 03:37:05 ( 10.03, 145.53) 11/10/2016 03:40:40 ( 22.65, 142.53)
11 11/10/2016 14:30:28 ( 12.06, 165.59) 11/10/2016 14:31:03 ( 10.00, 165.12)
12 11/10/2016 16:08:57 ( 22.68, 142.76) 11/10/2016 16:12:32 ( 10.06, 139.76)
13 11/11/2016 03:18:03 ( 10.05, 150.28) 11/11/2016 03:21:38 ( 22.67, 147.28)
14 11/11/2016 15:49:56 ( 22.66, 147.51) 11/11/2016 15:53:31 ( 10.04, 144.51)
15 11/12/2016 02:59:01 ( 10.01, 155.05) 11/12/2016 03:02:37 ( 22.70, 152.03)
16 11/12/2016 15:30:53 ( 22.69, 152.27) 11/12/2016 15:34:29 ( 10.01, 149.26)
17 11/13/2016 02:39:59 ( 10.04, 159.80) 11/13/2016 02:43:34 ( 22.66, 156.80)
18 11/13/2016 15:11:52 ( 22.67, 157.02) 11/13/2016 15:15:27 ( 10.05, 154.02)
19 11/14/2016 02:20:57 ( 10.00, 164.56) 11/14/2016 02:24:33 ( 22.69, 161.55)
20 11/14/2016 14:52:51 ( 22.65, 161.77) 11/14/2016 14:56:26 ( 10.03, 158.78)
21 11/15/2016 03:43:25 ( 10.03, 143.94) 11/15/2016 03:47:00 ( 22.66, 140.94)
22 11/15/2016 14:34:54 ( 18.81, 165.59) 11/15/2016 14:37:24 ( 10.00, 163.53)
23
